This is the latest recevied weather packets stored in our database for station/object KQ4PPF. If no packets are shown the sender has not sent any weather packets the latest 10 day(s).
| Time | Temp. | Humidity | Pressure | Rain* | Wind** | Luminosity | Snow |
|---|---|---|---|---|---|---|---|
| 1777656006 | 20.56° C | 45% | 1013.9 hPa | 0 mm | - | 229 W/m² | - |
| 1777655703 | 20° C | 48% | 1014 hPa | 0 mm | - | 235 W/m² | - |
| 1777655399 | 20° C | 47% | 1014.1 hPa | 0 mm | - | 251 W/m² | - |
| 1777655096 | 21.11° C | 45% | 1014.2 hPa | 0 mm | - | 326 W/m² | - |
| 1777654794 | 20.56° C | 47% | 1014.1 hPa | 0 mm | - | 312 W/m² | - |
| 1777654491 | 20.56° C | 48% | 1014.1 hPa | 0 mm | - | 255 W/m² | - |
| 1777654188 | 20° C | 44% | 1014.1 hPa | 0 mm | - | 363 W/m² | - |
| 1777653887 | 19.44° C | 47% | 1014 hPa | 0 mm | - | 443 W/m² | - |
| 1777653583 | 21.11° C | 45% | 1014.1 hPa | 0 mm | - | 334 W/m² | - |
| 1777653279 | 20.56° C | 41% | 1014.4 hPa | 0 mm | - | 346 W/m² | - |
| 1777652976 | 20.56° C | 43% | 1014.2 hPa | 0 mm | - | 412 W/m² | - |
| 1777652672 | 20.56° C | 45% | 1014.2 hPa | 0 mm | - | 471 W/m² | - |
| 1777652369 | 20.56° C | 46% | 1014.3 hPa | 0 mm | - | 534 W/m² | - |
| 1777652066 | 20° C | 49% | 1014.7 hPa | 0 mm | - | 530 W/m² | - |
| 1777651763 | 20° C | 49% | 1014.7 hPa | 0 mm | - | 606 W/m² | - |
| 1777651460 | 20° C | 47% | 1015 hPa | 0 mm | - | 627 W/m² | - |
| 1777651157 | 20.56° C | 47% | 1015 hPa | 0 mm | - | 606 W/m² | - |
| 1777650854 | 20° C | 49% | 1014.9 hPa | 0 mm | - | 512 W/m² | - |
| 1777650551 | 19.44° C | 51% | 1015 hPa | 0 mm | - | 633 W/m² | - |
| 1777650248 | 20° C | 48% | 1015.2 hPa | 0 mm | - | 620 W/m² | - |
| 1777649945 | 20° C | 48% | 1015 hPa | 0 mm | - | 730 W/m² | - |
| 1777649643 | 19.44° C | 50% | 1014.8 hPa | 0 mm | - | 617 W/m² | - |
| 1777649338 | 20° C | 49% | 1014.8 hPa | 0 mm | - | 663 W/m² | - |
| 1777649036 | 18.89° C | 49% | 1014.9 hPa | 0 mm | - | 577 W/m² | - |
| 1777648733 | 18.33° C | 56% | 1015.1 hPa | 0 mm | - | 591 W/m² | - |
* Rain latest hour (hover to see other rain measurements)
** Current wind speed in m/s (hover to see current wind gust speed)